Location: Asheville, NC
(35.6000°N, 82.5500°W)
Time: 22:46:44

HO-68 - Pass Details

Date: 10 March 2018
Orbit: 1193 x 1204 km, 100.1° (Epoch: 18 March)

Event Time Altitude Azimuth Distance (km) Brightness Sun altitude
Rises 20:02:11 0° 205° (SSW) 4,075 ? -18.8°
Reaches altitude 10° 20:05:37 10° 222° (SW) 3,117 ? -19.5°
Maximum altitude 20:10:36 20° 267° (W) 2,444 ? -20.5°
Drops below altitude 10° 20:15:37 10° 312° (NW) 3,133 ? -21.5°
Sets 20:19:07 0° 328° (NNW) 4,103 ? -22.2°
